Location: Noordwijk
(52.2400°N, 4.4500°E)
Time: 19:45:38
(UTC+00:00)

AO-7 - Pass Details

Date: 08 December 2022
Orbit: 1440 x 1459 km, 101.9° (Epoch: 31 January)

Event Time Altitude Azimuth Distance (km) Brightness Sun altitude
Rises 03:40:02 0° 22° (NNE) 4,548 ? -35.1°
Reaches altitude 10° 03:43:06 10° 30° (NNE) 3,567 ? -34.6°
Maximum altitude 03:50:47 39° 97° (E) 2,039 ? -33.4°
Drops below altitude 10° 03:58:24 10° 164° (SSE) 3,560 ? -32.3°
Sets 04:01:26 0° 172° (S) 4,536 ? -31.8°
